CZ-4 DEB, 26143

Orbit data source: Space-Track

CZ-4 DEB, 26143 is space debris in SSO originally from a launch on Thu, 14 Oct 1999 UTC launched from the Taiyaun Space Center, China (TSC). Debris objects in space refer to the collection of defunct objects orbiting the Earth. Examples of debris include non-operational satellites, rocket bodies, and fragments generated from explosions, collisions, or faulty payload assembly.

Loading next visibility...
CZ-4 DEB details
Identifier
26143, 1999-057AF
Orbit
SSO
Last TLE update2 days ago
Origin
Flag of CNCNSA (CN / PRC)
ManufacturerUnknown
MissionSpacecraft
Bus & MotorUnknown
MassUnknown
Launch date (UTC)
1999-10-14 (25 years ago)
Launch vehicleUnknown
Launch site
Taiyaun Space Center, China (TSC)
Object type
Payload
Rocket body
Debris
Shape & HBRUnknown
Radar Cross SectionSmall (<0.1 m²)

Expand to show TLE details & history

TLE from 2 days ago
0 CZ-4 DEB
1 26143U 99057AF  24354.92922622  .00000719  00000-0  61595-3 0  9994
2 26143  98.9469 359.1457 0479253  67.8160 333.7159 13.46887295214433
Epoch: 2024-12-19T22:18Z
Definitive object data (Epoch: 2024-12-19T22:18:05.145Z)
Latitude38.48442°
Longitude-71.52885°
Altitude771.896 km
Speed7.629 km/s
True Right ascension23h 27m 58s
True Declination38° 19' 02"
Sunlit
Object was in daylight at TLE epoch
Visualization TLE readout
Latitude-60.54983°
Longitude101.0164°
Altitude1,464.463 km
Speed6.956 km/s
Apparent Right ascension05h 01m 12s
Apparent Declination-74° 16' 22"
Sunlit
Object is in daylight
Visualization observer readout
Local Sidereal Time13:32:56
Azimuth198.707° SSW
Elevation-48.198°
Doppler factor1
Orbital elements
Apogee altitude1,438.473 km
Perigee altitude723.511 km
Semi-major axis7,459.129 km
Eccentricity0.0479253
Inclination98.9469°
RAAN359.1457°
Arg. of periapsis67.816°
True anomaly331.14716°
Mean anomaly333.7159°
Eccentric anomaly332.44567°
Mean motion3.36908 °/min
BSTAR0.00061595
Orbital period106.85 mins
Loading maneuver chart data...
Loading historical data...
Loading historical data...
Loading historical data...
Loading historical data...
Loading historical data...
Loading historical data...
Loading historical data...

CZ-4 DEB Visibility forecast

Observer location: undefined°, undefined

Span
Click to sort rows by Start time (UTC) header in descending order
Start Az.
Max El. time (UTC)
Max El. Az.
Max El.
End time (UTC)
End Az.
9 mins2024-12-22 00:08:48.290Z152.927° SSE2024-12-22 00:13:48.290Z68.354° E41.61°2024-12-22 00:17:48.290Z354.64° N
10 mins2024-12-22 13:05:48.290Z26.075° NE2024-12-22 13:09:48.290Z102.527° ESE41.721°2024-12-22 13:15:48.290Z182.188° SSW
|